Location: Casteau
(50.5142°N, 4.0161°E)
Time: 02:59:48
(UTC+00:00)

Cosmos 1892 Rocket - Pass Details

Date: 18 September 2020
Orbit: 606 x 633 km, 82.5° (Epoch: 24 October)

Event Time Altitude Azimuth Distance (km) Brightness Sun altitude
Rises 20:14:08 0° 352° (N) 2,880 7.6 -22.4°
Reaches altitude 10° 20:16:24 10° 357° (N) 1,969 6.6 -22.7°
Enters shadow 20:20:06 51° 44° (NE) 772 3.9 -23.2°
